Coatesville, PA

7:26 AM EDT on July 25, 2017 (GMT -0400)
Chester County Carlson

Weather History for KMQS - February, 2013

Change the Weather History Date:

Friday, February 1, 2013

  Actual Average (KILG) Record (KILG)
Temperature  
Mean Temperature 26 °F -  
Max Temperature 30 °F 41 °F 71 °F (2002)
Min Temperature 21 °F 23 °F -1 °F (1935)
Degree Days  
Heating Degree Days 40    
Moisture  
Dew Point 10 °F    
Average Humidity 49    
Maximum Humidity 74    
Minimum Humidity 34    
Precipitation  
Precipitation 0.03 in - - ()
Sea Level Pressure  
Sea Level Pressure 30.01 in    
Wind  
Wind Speed 12 mph (WNW)    
Max Wind Speed 30 mph    
Max Gust Speed 38 mph    
Visibility 10 miles    
Events Snow    
Averages and records for this station are not official NWS values.
T = Trace of Precipitation, MM = Missing Value Source: NWS Daily Summary

Daily Weather History Graph

Daily Weather History Graph

Search for Another Location

Airport or City:

Trip Planner

Search our weather history database for the weather conditions in past years. The results will help you decide how hot, cold, wet, or windy it might be!

Date:

Astronomy

Feb. 01, 2013 Rise Set
Actual Time 7:11 AM EST 5:23 PM EST
Civil Twilight 6:43 AM EST 5:51 PM EST
Nautical Twilight 6:10 AM EST 6:23 PM EST
Astronomical Twilight 5:38 AM EST 6:55 PM EST
Moon 11:27 PM EST (2/1) 9:43 AM EST (2/1)
Length of Visible Light 11h 08m
Length of Day
10h 11m
Waning Gibbous, 70% of the Moon is Illuminated
Feb 1
Waning Gibbous
Feb 3
Last Quarter
Feb 10
New
Feb 17
First Quarter
Feb 25
Full

Hourly Weather History & Observations

Time (EST) Temp. Windchill Dew Point Humidity Pressure Visibility Wind Dir Wind Speed Gust Speed Precip Events Conditions
12:15 AM 28.4 °F 21.2 °F 10.4 °F 47% 29.86 in 10.0 mi WSW 6.9 mph - N/A   Clear
12:35 AM 28.4 °F 23.3 °F 12.2 °F 51% 29.86 in 10.0 mi WSW 4.6 mph - N/A   Clear
12:55 AM 28.4 °F 22.2 °F 12.2 °F 51% 29.85 in 10.0 mi SW 5.8 mph - N/A   Clear
1:15 AM 28.4 °F 23.3 °F 12.2 °F 51% 29.85 in 10.0 mi SW 4.6 mph - N/A   Clear
1:35 AM 28.4 °F 24.6 °F 12.2 °F 51% 29.83 in 10.0 mi SW 3.5 mph - N/A   Clear
1:55 AM 28.4 °F 24.6 °F 12.2 °F 51% 29.84 in 10.0 mi SSW 3.5 mph - N/A   Clear
2:15 AM 26.6 °F 21.2 °F 12.2 °F 55% 29.84 in 10.0 mi SW 4.6 mph - N/A   Clear
2:35 AM 26.6 °F 22.6 °F 12.2 °F 55% 29.85 in 10.0 mi SW 3.5 mph - N/A   Clear
2:55 AM 28.4 °F 23.3 °F 12.2 °F 51% 29.84 in 10.0 mi SW 4.6 mph - N/A   Clear
3:15 AM 28.4 °F 24.6 °F 12.2 °F 51% 29.84 in 10.0 mi WSW 3.5 mph - N/A   Clear
3:35 AM 28.4 °F 22.2 °F 14.0 °F 55% 29.84 in 10.0 mi SW 5.8 mph - N/A   Scattered Clouds
3:55 AM 28.4 °F 23.3 °F 14.0 °F 55% 29.84 in 10.0 mi SW 4.6 mph - N/A   Partly Cloudy
4:15 AM 28.4 °F 23.3 °F 14.0 °F 55% 29.83 in 10.0 mi SW 4.6 mph - N/A   Scattered Clouds
4:35 AM 28.4 °F 24.6 °F 14.0 °F 55% 29.83 in 10.0 mi West 3.5 mph - N/A   Overcast
4:55 AM 28.4 °F - 14.0 °F 55% 29.83 in 10.0 mi Calm Calm - N/A   Scattered Clouds
5:15 AM 30.2 °F 24.3 °F 15.8 °F 55% 29.84 in 10.0 mi West 5.8 mph - N/A   Clear
5:35 AM 30.2 °F 21.9 °F 15.8 °F 55% 29.84 in 10.0 mi West 9.2 mph - N/A   Mostly Cloudy
5:55 AM 30.2 °F 25.4 °F 15.8 °F 55% 29.84 in 10.0 mi West 4.6 mph - N/A   Overcast
6:15 AM 30.2 °F 21.3 °F 17.6 °F 60% 29.84 in 10.0 mi West 10.4 mph 18.4 mph N/A   Overcast
6:35 AM 30.2 °F 20.8 °F 17.6 °F 60% 29.84 in 9.0 mi West 11.5 mph - N/A Snow Light Snow
6:55 AM 28.4 °F 17.0 °F 21.2 °F 74% 29.85 in 5.0 mi NW 15.0 mph 19.6 mph 0.01 in Snow Light Snow
7:15 AM 28.4 °F 17.0 °F 21.2 °F 74% 29.86 in 3.0 mi NW 15.0 mph 21.9 mph 0.01 in Snow Light Snow
7:35 AM 28.4 °F 20.4 °F 19.4 °F 69% 29.85 in 10.0 mi NW 8.1 mph - 0.02 in   Scattered Clouds
7:55 AM 28.4 °F 17.0 °F 17.6 °F 64% 29.86 in 10.0 mi WNW 15.0 mph 19.6 mph 0.02 in   Clear
8:15 AM 28.4 °F 14.4 °F 17.6 °F 64% 29.88 in 10.0 mi NW 23.0 mph 29.9 mph N/A Snow Light Snow
8:35 AM 28.4 °F 15.8 °F 19.4 °F 69% 29.89 in 5.0 mi WNW 18.4 mph 27.6 mph N/A Snow Light Snow
8:55 AM 28.4 °F 15.8 °F 14.0 °F 55% 29.89 in 10.0 mi NW 18.4 mph 33.4 mph N/A   Mostly Cloudy
9:15 AM 28.4 °F 13.8 °F 12.2 °F 51% 29.91 in 10.0 mi NW 25.3 mph 38.0 mph N/A   Partly Cloudy
9:35 AM 28.4 °F 13.3 °F 10.4 °F 47% 29.92 in 10.0 mi NW 27.6 mph 33.4 mph N/A   Clear
9:55 AM 28.4 °F 13.8 °F 12.2 °F 51% 29.93 in 10.0 mi WNW 25.3 mph 31.1 mph N/A   Partly Cloudy
10:15 AM 28.4 °F 14.1 °F 10.4 °F 47% 29.94 in 10.0 mi NW 24.2 mph 31.1 mph N/A   Partly Cloudy
10:35 AM 28.4 °F 13.5 °F 6.8 °F 40% 29.95 in 10.0 mi NW 26.5 mph 33.4 mph N/A   Partly Cloudy
10:55 AM 28.4 °F 14.1 °F 5.0 °F 37% 29.96 in 10.0 mi NW 24.2 mph 32.2 mph N/A   Clear
11:15 AM 30.2 °F 16.5 °F 6.8 °F 37% 29.96 in 10.0 mi WNW 24.2 mph 33.4 mph N/A   Scattered Clouds
11:35 AM 30.2 °F 15.2 °F 5.0 °F 34% 29.97 in 10.0 mi NW 29.9 mph 36.8 mph N/A   Mostly Cloudy
11:55 AM 30.2 °F 17.1 °F 6.8 °F 37% 29.97 in 10.0 mi NW 21.9 mph 35.7 mph N/A   Partly Cloudy
12:15 PM 30.2 °F 17.8 °F 6.8 °F 37% 29.97 in 10.0 mi NW 19.6 mph 31.1 mph N/A   Mostly Cloudy
12:35 PM 30.2 °F 16.5 °F 5.0 °F 34% 29.98 in 10.0 mi NW 24.2 mph 29.9 mph N/A   Mostly Cloudy
12:55 PM 30.2 °F 16.5 °F 5.0 °F 34% 29.99 in 10.0 mi NW 24.2 mph 34.5 mph N/A   Scattered Clouds
1:15 PM 28.4 °F 14.4 °F 5.0 °F 37% 30.00 in 10.0 mi NW 23.0 mph 34.5 mph N/A   Mostly Cloudy
1:35 PM 30.2 °F 15.4 °F 6.8 °F 37% 30.00 in 10.0 mi WNW 28.8 mph 35.7 mph N/A   Mostly Cloudy
1:55 PM 30.2 °F 16.8 °F 5.0 °F 34% 30.02 in 10.0 mi NW 23.0 mph 33.4 mph N/A   Mostly Cloudy
2:15 PM 30.2 °F 15.9 °F 5.0 °F 34% 30.02 in 10.0 mi WNW 26.5 mph 31.1 mph N/A   Partly Cloudy
2:35 PM 28.4 °F 14.7 °F 5.0 °F 37% 30.04 in 10.0 mi WNW 21.9 mph 32.2 mph N/A   Scattered Clouds
2:55 PM 28.4 °F 15.4 °F 5.0 °F 37% 30.04 in 10.0 mi WNW 19.6 mph 28.8 mph N/A   Mostly Cloudy
3:15 PM 28.4 °F 17.0 °F 5.0 °F 37% 30.05 in 10.0 mi NW 15.0 mph 27.6 mph N/A   Mostly Cloudy
3:35 PM 28.4 °F 14.7 °F 5.0 °F 37% 30.07 in 10.0 mi NW 21.9 mph 29.9 mph N/A   Mostly Cloudy
3:55 PM 26.6 °F 11.7 °F 3.2 °F 37% 30.08 in 10.0 mi WNW 24.2 mph 29.9 mph N/A   Scattered Clouds
4:15 PM 28.4 °F 14.1 °F 3.2 °F 34% 30.09 in 10.0 mi WNW 24.2 mph 27.6 mph N/A   Scattered Clouds
4:35 PM 26.6 °F 13.1 °F 3.2 °F 37% 30.10 in 10.0 mi WNW 19.6 mph 28.8 mph N/A   Clear
4:55 PM 26.6 °F 14.7 °F 5.0 °F 40% 30.12 in 10.0 mi WNW 15.0 mph 29.9 mph N/A   Clear
5:15 PM 26.6 °F 12.4 °F 5.0 °F 40% 30.13 in 10.0 mi WNW 21.9 mph 27.6 mph N/A   Clear
5:35 PM 24.8 °F 11.1 °F 5.0 °F 43% 30.14 in 10.0 mi WNW 18.4 mph 23.0 mph N/A   Clear
5:55 PM 24.8 °F 11.1 °F 5.0 °F 43% 30.15 in 10.0 mi WNW 18.4 mph - N/A   Clear
6:15 PM 24.8 °F 14.0 °F 5.0 °F 43% 30.16 in 10.0 mi WNW 11.5 mph 20.7 mph N/A   Clear
6:35 PM 23.0 °F 10.6 °F 5.0 °F 46% 30.18 in 10.0 mi WNW 13.8 mph - N/A   Clear
6:55 PM 23.0 °F 9.6 °F 5.0 °F 46% 30.19 in 10.0 mi WNW 16.1 mph 23.0 mph N/A   Clear
7:15 PM 23.0 °F 10.1 °F 5.0 °F 46% 30.20 in 10.0 mi WNW 15.0 mph 24.2 mph N/A   Clear
7:35 PM 23.0 °F 10.1 °F 5.0 °F 46% 30.21 in 10.0 mi WNW 15.0 mph 23.0 mph N/A   Clear
7:55 PM 23.0 °F 9.6 °F 6.8 °F 50% 30.22 in 10.0 mi West 16.1 mph 23.0 mph N/A   Clear
8:15 PM 23.0 °F 8.7 °F 6.8 °F 50% 30.24 in 10.0 mi West 18.4 mph - N/A   Clear
8:55 PM 21.2 °F 8.9 °F 8.6 °F 58% 30.24 in 10.0 mi West 12.7 mph - N/A   Clear
9:15 PM 21.2 °F 8.3 °F 6.8 °F 54% 30.25 in 10.0 mi WNW 13.8 mph - N/A   Clear
9:35 PM 21.2 °F 8.3 °F 6.8 °F 54% 30.25 in 10.0 mi WNW 13.8 mph - N/A   Clear
9:55 PM 21.2 °F 8.3 °F 6.8 °F 54% 30.26 in 10.0 mi West 13.8 mph 24.2 mph N/A   Clear
10:15 PM 21.2 °F 8.3 °F 6.8 °F 54% 30.27 in 10.0 mi WNW 13.8 mph 21.9 mph N/A   Clear
10:35 PM 21.2 °F 6.8 °F 6.8 °F 54% 30.27 in 10.0 mi WNW 17.3 mph 24.2 mph N/A   Clear
10:55 PM 21.2 °F 7.3 °F 6.8 °F 54% 30.27 in 10.0 mi WNW 16.1 mph - N/A   Clear
11:15 PM 21.2 °F 7.3 °F 6.8 °F 54% 30.28 in 10.0 mi WNW 16.1 mph 20.7 mph N/A   Clear
11:35 PM 21.2 °F 7.3 °F 6.8 °F 54% 30.28 in 10.0 mi WNW 16.1 mph 21.9 mph N/A   Clear
11:55 PM 21.2 °F 7.8 °F 6.8 °F 54% 30.29 in 10.0 mi WNW 15.0 mph 20.7 mph N/A   Clear